Weather WX

World > North America > United States > Ohio

Bunker Hill, Ohio Regional Weather

Lat: 40.57N, Lon: 81.78W
Wx Zone: OHZ038
Warning FLW WEATHER ALERT - (More Info. Click Here) Warning
Feedback

Bunker Hill, OH Regional Weather

Expires:201907171500;;783928
ASUS41 KCLE 171412
RWRCLE
OHIO REGIONAL WEATHER ROUNDUP
NATIONAL WEATHER SERVICE WILMINGTON, OH
1000 AM EDT WED JUL 17 2019

NOTE: "FAIR" INDICATES FEW OR NO CLOUDS BELOW 12,000 FEET WITH NO
SIGNIFICANT WEATHER AND/OR OBSTRUCTIONS TO VISIBILITY.


OHZ009>014-019>023-028>033-038-089-171500-
   NORTHEAST OHIO
  
CITY           SKY/WX    TMP DP  RH WIND       PRES   REMARKS
CLE-HOPKINS    CLOUDY    77  71  82 S8        29.93S                  
CLE-LAKEFRONT  CLOUDY    77  70  79 S10       29.90S                  
CUY CO. ARPT   PTSUNNY   75  72  88 S8        29.93S                  
LORAIN-ELYRIA  LGT RAIN  74  69  85 S6        29.92S                  
ASHTABULA      FAIR      74  73  97 S8        29.95S                  
AKRON-CANTON   CLOUDY    76  71  85 S7        29.96S                  
WOOSTER        CLOUDY    74  72  93 S9        29.95S                  
MANSFIELD      CLOUDY    75  72  90 S8        29.94S                  
YOUNGSTOWN     CLOUDY    75  70  84 S7        29.97R                  
$$
 

SKY/WX - Weather  TMP - Temperature  DP - Dew Point  RH - Relative Humidity
WIND - Wind Direction/Speed PRES - Barometric Pressure VSB - Visibility
WCI - Wind Chill Index E13G22 Wind - East Wind 13 mph/Gusts of 22 mph